[[{"header":{"parameterUnit":"m.s-1","parameterCategory":1,"la1":30.2991,"la2":30.254,"lo1":-89.0895,"lo2":-89.0444,"dy":0.0017,"dx":0.0017,"nx":28,"ny":28,"refTime":"2025-04-18T21:00:00:Z","depth":0,"parameterNumber":2,"parameterNumberName":"U-component_of_WINDS"},"data":[0,0,0,0,0,0,0,0,0,0,0,0,0,0,0,0,0,0,0,0,0,0,0,0,0,0,0,0,0,0,0,0,0,0,0,0,0,0,0,0,0,0,0,0,0,0,0,0,0,0,0,0,0,0,0,0,0,0,-3.9202,-3.9203,0,-3.9237,-3.9237,-3.9238,-3.9189,-3.9188,-3.9186,-3.9184,-3.9219,-3.9221,-3.9224,0,0,0,0,0,0,0,0,0,0,0,0,0,-3.9093,-3.9096,-3.9202,-3.9203,-3.9203,-3.9237,-3.9237,-3.9238,-3.919,-3.9188,-3.9185,-3.9183,-3.9218,-3.9221,-3.9224,0,0,0,0,0,0,0,0,0,0,0,0,0,-3.9136,-3.9096,-3.9202,-3.9183,-3.9182,-3.9237,-3.9237,-3.9238,-3.919,-3.9187,-3.9185,-3.9183,-3.9217,-3.9221,-3.9224,-3.9299,0,0,-3.9236,-3.9238,0,0,0,0,0,0,0,0,-3.9133,-3.914,-3.9185,-3.9185,-3.9183,-3.9206,-3.9212,-3.9258,-3.9191,-3.9187,-3.9184,-3.9181,-3.9217,-3.922,-3.9232,-3.9301,-3.9302,-3.9236,-3.9239,-3.924,-3.9241,0,0,0,0,0,0,0,-3.913,-3.9138,-3.9216,-3.9186,-3.9185,-3.9173,-3.9176,-3.922,-3.9216,-3.9187,-3.9184,-3.9188,-3.9215,-3.9229,-3.9233,-3.9303,-3.9236,-3.924,-3.9242,-3.9243,-3.9434,-3.9437,0,0,0,0,0,0,-3.913,-3.9136,-3.9215,-3.9217,-3.9151,-3.9177,-3.918,-3.9201,-3.9215,-3.9215,-3.9191,-3.9186,-3.9224,-3.9229,-3.9234,-3.9322,-3.924,-3.9244,-3.9246,-3.9432,-3.9435,-3.9438,0,0,0,0,0,0,-3.9128,-3.9137,-3.9213,-3.9175,-3.9184,-3.9181,-3.9205,-3.9203,-3.9217,-3.9218,-3.9217,-3.9205,-3.9222,-3.9229,-3.9283,-3.9322,-3.9245,-3.9249,-3.9428,-3.9433,-3.9437,-3.9499,0,0,0,0,0,0,-3.9125,-3.9137,-3.9165,-3.9176,-3.9186,-3.9263,-3.9208,-3.9206,-3.9223,-3.9218,-3.9231,-3.9231,-3.922,-3.9278,-3.9287,-3.9326,-3.9252,-3.9425,-3.943,-3.9435,-3.9493,-3.9504,-3.9514,0,0,0,0,0,-3.9121,-3.9181,-3.9167,-3.9177,-3.9222,-3.9265,-3.9271,-3.9257,-3.9227,-3.9255,-3.9256,-3.923,-3.9317,-3.9284,-3.9294,-3.9335,-3.9422,-3.9429,-3.9435,-3.9488,-3.9502,-3.9514,0,0,0,0,0,0,-3.9174,-3.9182,-3.9167,-3.9232,-3.9249,-3.9257,-3.9292,-3.9273,-3.9297,-3.9291,-3.9273,-3.9277,-3.9335,-3.9341,-3.9304,-3.9408,-3.9364,-3.9373,-3.9402,-3.9415,-3.9425,-3.9422,-3.9255,0,0,0,0,0,-3.9194,-3.9229,-3.9234,-3.9291,-3.93,-3.9295,-3.9313,-3.9302,-3.9317,-3.9324,-3.9328,-3.9345,-3.9375,-3.9396,-3.9424,-3.9494,-3.9496,-3.9527,-3.9538,-3.9546,-3.9554,-3.9591,-3.9604,-3.9459,-3.9459,-3.9459,0,0,-3.9234,-3.9243,-3.9266,-3.9302,-3.9313,-3.9349,-3.9301,-3.9341,-3.9367,-3.933,-3.9381,-3.9386,-3.9403,-3.9465,-3.9493,-3.9471,-3.9594,-3.9555,-3.9561,-3.9564,-3.9598,-3.9612,-3.9624,-3.9463,-3.9462,-3.9462,0,0,-3.9326,-3.9337,-3.9385,-3.9397,-3.9415,-3.9411,-3.9423,-3.9435,-3.9436,-3.9488,-3.9461,-3.9492,-3.9546,-3.9558,-3.9572,-3.967,-3.9647,-3.9679,-3.9734,-3.977,-3.9782,-3.9792,-3.9825,-3.9838,-3.9687,-3.9687,-3.9687,0,-3.9374,-3.9426,-3.9413,-3.9454,-3.9471,-3.944,-3.9489,-3.9501,-3.9527,-3.9539,-3.9515,-3.9581,-3.959,-3.9655,-3.9679,-3.9692,-3.9704,-3.9677,-3.9781,-3.9791,-3.98,-3.9832,-3.9845,-3.9691,-3.969,-3.969,-3.969,0,-3.9484,-3.9521,-3.9558,-3.9584,-3.9605,-3.965,-3.9643,-3.9666,-3.9653,-3.9652,-3.9705,-3.9716,-3.9745,-3.976,-3.9748,-3.9824,-3.981,-3.9784,-3.974,-3.9818,-3.9848,-3.986,-3.9696,-3.9695,-3.9694,-3.9693,0,0,-3.9608,-3.9627,-3.9641,-3.9652,-3.9669,-3.9697,-3.9741,-3.9771,-3.979,-3.981,-3.9845,-3.9892,-3.9868,-3.9884,-3.9873,-3.9905,-3.9981,-3.9875,-3.9875,-3.9893,-4.0064,-4.0082,-4.0097,-3.9967,-3.9969,-3.9971,-4.0062,0,-3.9699,-3.9774,-3.9764,-3.9836,-3.987,-3.9842,-3.988,-3.9895,-3.9895,-3.9924,-3.9924,-3.9957,-3.9924,-3.9933,-3.9964,-3.9965,-4.0015,-3.9959,-3.9999,-4.0001,-3.9994,-4.0112,-4.0132,-4.0217,-4.0074,-4.0076,-4.0077,0,-3.9814,-3.9837,-3.9914,-3.9926,-3.9939,-3.9974,-4.0,-4.0028,-4.0044,-4.0042,-4.0061,-4.0044,-4.0088,-4.0045,-4.0104,-4.0067,-4.0083,-4.0086,-4.0089,-4.0091,-4.0042,-4.0116,-4.0244,-4.0257,-4.0096,-4.0094,-4.0093,0,-3.9895,-3.9947,-3.9998,-4.0009,-4.0025,-4.005,-4.0057,-4.0071,-4.009,-4.0113,-4.0124,-4.0153,-4.0168,-4.019,-4.0181,-4.0151,-4.0243,-4.0199,-4.0242,-4.0242,-4.0261,-4.0259,-4.0392,-4.0274,-4.0274,-4.0274,-4.0274,0,-3.9997,-4.0044,-4.0035,-4.0067,-4.0119,-4.0107,-4.0159,-4.0163,-4.0176,-4.0208,-4.0186,-4.0216,-4.0204,-4.0234,-4.0228,-4.0278,-4.0286,-4.0285,-4.0282,-4.0286,-4.0286,-4.0295,-4.0288,-4.0277,-4.0276,-4.0276,-4.0275,0,-4.0096,-4.0092,-4.0146,-4.0157,-4.0161,-4.0199,-4.0208,-4.0238,-4.0237,-4.0278,-4.0287,-4.0286,-4.032,-4.0315,-4.0353,-4.0349,-4.0411,-4.0402,-4.0405,-4.0402,-4.0445,-4.0441,-4.0587,-4.0605,-4.0477,-4.0478,-4.0479,0,-4.016,-4.0195,-4.021,-4.023,-4.024,-4.0272,-4.0291,-4.028,-4.0301,-4.0322,-4.035,-4.0382,-4.0407,-4.0463,-4.0465,-4.0494,-4.0485,-4.0534,-4.0489,-4.0491,-4.0484,-4.0481,-4.0485,-4.0542,-4.0544,-4.0545,-4.0546,0,-4.0273,-4.027,-4.0298,-4.0325,-4.0348,-4.0369,-4.0388,-4.0406,-4.0397,-4.0421,-4.0456,-4.0475,-4.0514,-4.0546,-4.0573,-4.0581,-4.0562,-4.0561,-4.0572,-4.0575,-4.0575,-4.0575,-4.0428,-4.0557,-4.0556,-4.0555,-4.0554,-4.0554,-4.0356,-4.0386,-4.0401,-4.0433,-4.0446,-4.0465,-4.0493,-4.0496,-4.0525,-4.0555,-4.0548,-4.0587,-4.0603,-4.0637,-4.0648,-4.0679,-4.0661,-4.0677,-4.0681,-4.0685,-4.069,-4.0572,-4.0684,-4.0684,-4.0683,-4.0683,-4.0683,0,-4.0467,-4.0476,-4.0505,-4.0532,-4.0557,-4.0538,-4.0558,-4.058,-4.0615,-4.0631,-4.0657,-4.0696,-4.0728,-4.0733,-4.0763,-4.0786,-4.0779,-4.0795,-4.0792,-4.0794,-4.0705,-4.0691,-4.08,-4.08,-4.08,-4.08,-4.08,-4.08,-4.0528,-4.0578,-4.0576,-4.0633,-4.0641,-4.0679,-4.0692,-4.0709,-4.0721,-4.0767,-4.0793,-4.0796,-4.0808,-4.0839,-4.0867,-4.0868,-4.0879,-4.0899,-4.0896,-4.0812,-4.08,-4.0789,-4.0776,-4.0901,-4.0902,-4.0982,-4.0983,-4.0984]},{"header":{"parameterUnit":"m.s-1","parameterCategory":1,"la1":30.2991,"la2":30.254,"lo1":-89.0895,"lo2":-89.0444,"dy":0.0017,"dx":0.0017,"nx":28,"ny":28,"refTime":"2025-04-18T21:00:00:Z","depth":0,"parameterNumber":3,"parameterNumberName":"V-component_of_WINDS"},"data":[0,0,0,0,0,0,0,0,0,0,0,0,0,0,0,0,0,0,0,0,0,0,0,0,0,0,0,0,0,0,0,0,0,0,0,0,0,0,0,0,0,0,0,0,0,0,0,0,0,0,0,0,0,0,0,0,0,0,3.8166,3.8168,0,3.8311,3.8313,3.8314,3.832,3.8319,3.8317,3.8315,3.8457,3.8463,3.8468,0,0,0,0,0,0,0,0,0,0,0,0,0,3.7889,3.7895,3.8166,3.8168,3.817,3.8311,3.8313,3.8315,3.8321,3.8319,3.8317,3.8315,3.8456,3.8462,3.8468,0,0,0,0,0,0,0,0,0,0,0,0,0,3.8019,3.7896,3.8166,3.819,3.8193,3.831,3.8313,3.8315,3.8321,3.8319,3.8316,3.8314,3.8453,3.8461,3.8469,3.857,0,0,3.8494,3.8497,0,0,0,0,0,0,0,0,3.8012,3.8029,3.8184,3.8188,3.8193,3.8295,3.8267,3.84,3.8322,3.8272,3.8315,3.8312,3.8405,3.8417,3.8449,3.8577,3.8583,3.8495,3.8499,3.8503,3.8505,0,0,0,0,0,0,0,3.8003,3.8023,3.8223,3.8187,3.8192,3.8192,3.8207,3.8293,3.8351,3.8277,3.8277,3.8295,3.8407,3.8442,3.8453,3.8585,3.8494,3.8501,3.8506,3.851,3.8802,3.8805,0,0,0,0,0,0,3.799,3.8016,3.8219,3.8228,3.8094,3.8199,3.8216,3.8265,3.835,3.8361,3.8297,3.8295,3.8429,3.8443,3.8458,3.8582,3.8503,3.851,3.8515,3.8799,3.8803,3.8806,0,0,0,0,0,0,3.7984,3.8008,3.8213,3.8122,3.8148,3.8206,3.8261,3.8269,3.8304,3.8366,3.8375,3.8322,3.8428,3.8447,3.8543,3.8587,3.8514,3.8521,3.8796,3.88,3.8804,3.8831,0,0,0,0,0,0,3.7976,3.8006,3.8046,3.8123,3.8153,3.8297,3.8263,3.8274,3.8319,3.8317,3.8392,3.8402,3.8427,3.8531,3.8551,3.8597,3.8528,3.8792,3.8798,3.8803,3.8826,3.8835,3.8844,0,0,0,0,0,3.7966,3.8046,3.8048,3.8072,3.8205,3.8299,3.8316,3.8346,3.8322,3.8362,3.8402,3.84,3.8579,3.854,3.8563,3.8612,3.8789,3.8796,3.8803,3.8822,3.8834,3.8843,0,0,0,0,0,0,3.797,3.8056,3.806,3.8167,3.8226,3.83,3.8352,3.8357,3.8422,3.8418,3.8449,3.8466,3.8562,3.8596,3.8552,3.8714,3.8681,3.8693,3.8688,3.87,3.8708,3.8698,3.8534,0,0,0,0,0,3.7984,3.8056,3.8126,3.8214,3.8244,3.8293,3.8335,3.8353,3.8415,3.8439,3.8486,3.8544,3.8613,3.8658,3.8726,3.8831,3.8847,3.8876,3.8885,3.8891,3.8901,3.896,3.8973,3.8828,3.8828,3.8828,0,0,3.8012,3.8068,3.8111,3.8217,3.8264,3.8337,3.8314,3.8391,3.8444,3.845,3.8545,3.8581,3.8647,3.8749,3.8796,3.8781,3.8945,3.89,3.8905,3.8911,3.8968,3.8982,3.8994,3.8832,3.8831,3.8831,0,0,3.8101,3.8151,3.823,3.8279,3.8353,3.8385,3.8404,3.8479,3.8504,3.86,3.8606,3.8668,3.8787,3.8835,3.8875,3.8984,3.8984,3.9004,3.9049,3.9106,3.9118,3.9128,3.9167,3.918,3.9013,3.9014,3.9014,0,3.8126,3.8238,3.827,3.8348,3.8394,3.8405,3.8485,3.853,3.8621,3.8652,3.8634,3.8785,3.883,3.8944,3.897,3.9002,3.9024,3.8996,3.9114,3.9125,3.9135,3.9172,3.9186,3.9016,3.9015,3.9015,3.9015,0,3.8265,3.8342,3.8397,3.8488,3.854,3.8618,3.8661,3.8709,3.8723,3.8756,3.8853,3.8909,3.8988,3.9016,3.9028,3.9131,3.912,3.9108,3.9075,3.915,3.9186,3.92,3.9019,3.9018,3.9017,3.9017,0,0,3.836,3.8469,3.8489,3.8531,3.8613,3.8672,3.8751,3.8831,3.8872,3.8934,3.9,3.9101,3.9091,3.9136,3.9154,3.9204,3.9287,3.9186,3.9188,3.9203,3.9404,3.9412,3.9428,3.9288,3.9291,3.9293,3.9398,0,3.8459,3.8602,3.8633,3.8755,3.8826,3.8838,3.8907,3.8964,3.8997,3.9061,3.9097,3.9169,3.915,3.9177,3.9227,3.9267,3.9328,3.9259,3.9348,3.9351,3.9332,3.9447,3.9457,3.9553,3.9412,3.9414,3.9416,0,3.8593,3.8661,3.8791,3.8866,3.8897,3.8958,3.9034,3.9096,3.916,3.9181,3.9232,3.9246,3.9326,3.929,3.94,3.9353,3.9391,3.9416,3.942,3.943,3.9388,3.946,3.9585,3.9599,3.9438,3.9437,3.9435,0,3.8649,3.8774,3.8868,3.8903,3.8992,3.9035,3.9074,3.9136,3.9183,3.9248,3.9279,3.9352,3.9392,3.9447,3.9479,3.945,3.9588,3.9554,3.9606,3.9605,3.9635,3.9632,3.9767,3.9659,3.9658,3.9658,3.9658,0,3.8756,3.8835,3.8895,3.8953,3.9042,3.9077,3.9163,3.9201,3.9257,3.9321,3.9335,3.9394,3.9433,3.9497,3.9522,3.961,3.9628,3.9646,3.9652,3.9645,3.9643,3.9671,3.9665,3.9662,3.9661,3.966,3.966,0,3.8835,3.8878,3.8982,3.9059,3.908,3.9142,3.9206,3.9262,3.9296,3.9378,3.9398,3.9451,3.9528,3.9566,3.966,3.9677,3.9777,3.9778,3.9756,3.9758,3.9809,3.9803,3.9966,3.9989,3.9865,3.9866,3.9867,0,3.8901,3.8962,3.9046,3.9092,3.9132,3.9205,3.9253,3.9289,3.9338,3.9417,3.9463,3.9541,3.9606,3.9728,3.9773,3.9845,3.9848,3.9901,3.9859,3.9851,3.985,3.9846,3.9852,3.9908,3.9909,3.991,3.9911,0,3.9013,3.9032,3.9102,3.918,3.9238,3.93,3.9361,3.9397,3.9443,3.9497,3.9577,3.9627,3.9725,3.9802,3.9878,3.9915,3.9921,3.9924,3.994,3.9934,3.9919,3.9928,3.9776,3.992,3.9919,3.9918,3.9918,3.9917,3.9087,3.9143,3.9212,3.9289,3.934,3.9397,3.9454,3.9496,3.9565,3.9649,3.9665,3.975,3.9813,3.9916,3.9956,4.0022,4.001,4.0033,4.0039,4.0044,4.0047,3.9908,4.0035,4.0035,4.0035,4.0035,4.0034,0,3.9201,3.9246,3.9317,3.9404,3.9465,3.9467,3.9535,3.9585,3.9661,3.972,3.9784,3.9876,3.9951,4.0003,4.0078,4.0121,4.0125,4.0139,4.0137,4.0145,4.0053,4.0032,4.0135,4.0135,4.0135,4.0135,4.0135,4.0135,3.9267,3.9362,3.9389,3.9508,3.9552,3.9638,3.9677,3.9729,3.9777,3.988,3.9943,3.9977,4.0033,4.0113,4.0182,4.0195,4.0222,4.0236,4.0249,4.0162,4.0151,4.0141,4.0122,4.0242,4.0242,4.0336,4.0337,4.0338]}]]